User: anonymous   Login
Location: ???????
(55.4362°N, 38.1183°E)
Time: 23:46:18
(UTC+00:00)
Language:

Cosmos 1536 Rocket - Orbit

View from above orbital plane
View from above orbital plane
View from above satellite
View from above satellite

Ground track
Ground track

The orbit data is extracted from the following two-line orbital elements,

1 14700U 84013B   21271.37859142  .00000103  00000-0  96624-5 0  9996
2 14700  82.5361 135.3672 0018955 207.0529 325.8331 14.83344200 11779
Epoch (UTC): 28 September 2021 09:05:10
Eccentricity: 0.0018955
inclination: 82.5361°
perigee height: 605 km
apogee height: 632 km
right ascension of ascending node: 135.3672°
argument of perigee: 207.0529°
revolutions per day: 14.83344200
mean anomaly at epoch: 325.8331°
orbit number at epoch: 1177

The dashed part of the orbit path shows where the satellite is in the earth's shadow,  

DLR